timestamp,surface_pressure_avg,surface_temp_avg,battery_voltage,lat,long
2019-02-28 00:00:00+00:00,244.9331,-0.73,12.97,47.84626,-54.09684
2019-02-28 00:10:00+00:00,249.5281,-0.72,12.89,47.84626,-54.09684
2019-02-28 00:20:00+00:00,251.5831,-0.71,12.97,47.84626,-54.09684
2019-02-28 00:30:00+00:00,247.6781,-0.71,12.97,47.84626,-54.09684
2019-02-28 00:40:00+00:00,248.5831,-0.72,13.05,47.84626,-54.09684
2019-02-28 00:50:00+00:00,253.3831,-0.71,13.05,47.84626,-54.09684
2019-02-28 01:00:00+00:00,251.6364,-0.72,12.97,47.84626,-54.09684
2019-02-28 01:10:00+00:00,248.0898,-0.73,12.89,47.84626,-54.09684
2019-02-28 01:20:00+00:00,251.9997,-0.74,12.97,47.84626,-54.09684
2019-02-28 01:30:00+00:00,258.1597,-0.75,12.97,47.84626,-54.09684
2019-02-28 01:40:00+00:00,259.1164,-0.74,12.97,47.84626,-54.09684
2019-02-28 01:50:00+00:00,258.093,-0.71,12.97,47.84626,-54.09684
2019-02-28 02:00:00+00:00,260.7581,-0.7,12.89,47.84626,-54.09684
2019-02-28 02:10:00+00:00,261.5264,-0.7,12.81,47.84626,-54.09684
2019-02-28 02:20:00+00:00,259.7614,-0.7,12.97,47.84626,-54.09684
2019-02-28 02:30:00+00:00,257.7997,-0.7,12.97,47.84626,-54.09684
2019-02-28 02:40:00+00:00,260.5831,-0.7,12.97,47.84626,-54.09684
2019-02-28 02:50:00+00:00,260.9414,-0.7,12.97,47.84626,-54.09684
2019-02-28 03:00:00+00:00,261.8014,-0.7,12.89,47.84626,-54.09684
2019-02-28 03:10:00+00:00,267.2614,-0.7,12.81,47.84626,-54.09684
2019-02-28 03:20:00+00:00,273.8331,-0.7,12.89,47.84626,-54.09684
2019-02-28 03:30:00+00:00,277.2464,-0.7,12.89,47.84626,-54.09684
2019-02-28 03:40:00+00:00,281.858,-0.76,12.97,47.84626,-54.09684
2019-02-28 03:50:00+00:00,288.7547,-0.7,12.97,47.84626,-54.09684
2019-02-28 04:00:00+00:00,292.6681,-0.7,12.89,47.84626,-54.09684
2019-02-28 04:10:00+00:00,293.5264,-0.7,12.81,47.84626,-54.09684
2019-02-28 04:20:00+00:00,296.6898,-0.7,12.89,47.84626,-54.09684
2019-02-28 04:30:00+00:00,301.1014,-0.7,12.89,47.84626,-54.09684
2019-02-28 04:40:00+00:00,304.2913,-0.7,12.97,47.84626,-54.09684
2019-02-28 04:50:00+00:00,304.3947,-0.7,12.97,47.84626,-54.09684
2019-02-28 05:00:00+00:00,308.1497,-0.7,12.89,47.84626,-54.09684
2019-02-28 05:10:00+00:00,315.3097,-0.7,12.81,47.84626,-54.09684
2019-02-28 05:20:00+00:00,321.1013,-0.7,12.89,47.84626,-54.09684
2019-02-28 05:30:00+00:00,321.2147,-0.7,12.89,47.84626,-54.09684
2019-02-28 05:40:00+00:00,326.0396,-0.7,12.89,47.84626,-54.09684
2019-02-28 05:50:00+00:00,333.8813,-0.7,12.97,47.84626,-54.09684
2019-02-28 06:00:00+00:00,336.953,-0.7,12.81,47.84626,-54.09684
2019-02-28 06:10:00+00:00,337.3797,-0.7,12.81,47.84626,-54.09684
2019-02-28 06:20:00+00:00,343.2962,-0.7,12.89,47.84626,-54.09684
2019-02-28 06:30:00+00:00,350.7846,-0.7,12.89,47.84626,-54.09684
2019-02-28 06:40:00+00:00,351.6562,-0.7,12.89,47.84626,-54.09684
2019-02-28 06:50:00+00:00,350.8079,-0.72,12.89,47.84626,-54.09684
2019-02-28 07:00:00+00:00,354.6013,-0.73,12.81,47.84626,-54.09684
2019-02-28 07:10:00+00:00,357.7195,-0.75,12.73,47.84626,-54.09684
2019-02-28 07:20:00+00:00,353.458,-0.8,12.89,47.84626,-54.09684
2019-02-28 07:30:00+00:00,348.2997,-0.8,12.89,47.84626,-54.09684
2019-02-28 07:40:00+00:00,348.0262,-0.8,12.89,47.84626,-54.09684
2019-02-28 07:50:00+00:00,349.5547,-0.8,12.89,47.84626,-54.09684
2019-02-28 08:00:00+00:00,348.838,-0.8,12.81,47.84626,-54.09684
2019-02-28 08:10:00+00:00,342.8813,-0.8,12.73,47.84626,-54.09684
2019-02-28 08:20:00+00:00,340.7297,-0.8,12.81,47.84626,-54.09684
2019-02-28 08:30:00+00:00,341.0547,-0.8,12.81,47.84626,-54.09684
2019-02-28 08:40:00+00:00,337.9446,-0.81,12.89,47.84626,-54.09684
2019-02-28 08:50:00+00:00,329.118,-0.86,12.89,47.84626,-54.09684
2019-02-28 09:00:00+00:00,324.5913,-0.89,12.81,47.84626,-54.09684
2019-02-28 09:10:00+00:00,319.693,-0.9,12.73,47.84626,-54.09684
2019-02-28 09:20:00+00:00,311.6863,-0.9,12.81,47.84626,-54.09684
2019-02-28 09:30:00+00:00,302.608,-0.9,12.81,47.84626,-54.09684
2019-02-28 09:40:00+00:00,300.2213,-0.9,12.89,47.84626,-54.09684
2019-02-28 09:50:00+00:00,297.1414,-0.9,12.89,47.84626,-54.09684
2019-02-28 10:00:00+00:00,292.5664,-0.9,12.81,47.84626,-54.09684
2019-02-28 10:10:00+00:00,290.1697,-0.91,12.73,47.84626,-54.09684
2019-02-28 10:20:00+00:00,286.9997,-0.9,12.81,47.84626,-54.09684
2019-02-28 10:30:00+00:00,281.1265,-0.95,12.81,47.84626,-54.09684
2019-02-28 10:40:00+00:00,277.1298,-1.0,12.89,47.84626,-54.09684
2019-02-28 10:50:00+00:00,275.3663,-0.93,13.05,47.84626,-54.09684
2019-02-28 11:00:00+00:00,269.718,-0.9,13.29,47.84626,-54.09684
2019-02-28 11:10:00+00:00,263.4147,-0.9,13.37,47.84626,-54.09684
2019-02-28 11:20:00+00:00,261.6864,-0.9,14.56,47.84626,-54.09684
2019-02-28 11:30:00+00:00,263.7531,-0.85,16.23,47.84626,-54.09684
2019-02-28 11:40:00+00:00,262.4714,-0.82,16.71,47.84626,-54.09684
2019-02-28 11:50:00+00:00,261.4381,-0.82,16.79,47.84626,-54.09684
2019-02-28 12:00:00+00:00,263.8147,-0.81,15.67,47.84626,-54.09684
2019-02-28 12:10:00+00:00,265.4148,-0.81,15.75,47.84626,-54.09684
2019-02-28 12:20:00+00:00,266.7297,-0.8,15.75,47.84626,-54.09684
2019-02-28 12:30:00+00:00,272.0631,-0.8,15.6,47.84626,-54.09684
2019-02-28 12:40:00+00:00,273.7331,-0.8,15.51,47.84626,-54.09684
2019-02-28 12:50:00+00:00,269.5314,-0.8,15.51,47.84626,-54.09684
2019-02-28 13:00:00+00:00,269.5214,-0.8,15.27,47.84626,-54.09684
2019-02-28 13:10:00+00:00,273.7964,-0.8,15.27,47.84626,-54.09684
2019-02-28 13:20:00+00:00,273.1731,-0.8,15.35,47.84626,-54.09684
2019-02-28 13:30:00+00:00,270.0997,-0.8,15.27,47.84626,-54.09684
2019-02-28 13:40:00+00:00,273.5447,-0.78,15.27,47.84626,-54.09684
2019-02-28 13:50:00+00:00,279.6614,-0.8,15.2,47.84626,-54.09684
2019-02-28 14:00:00+00:00,281.0281,-0.78,15.04,47.84626,-54.09684
2019-02-28 14:10:00+00:00,276.1314,-0.8,15.11,47.84626,-54.09684
2019-02-28 14:20:00+00:00,274.4697,-0.77,15.11,47.84626,-54.09684
2019-02-28 14:30:00+00:00,275.3964,-0.74,15.11,47.84626,-54.09684
2019-02-28 14:40:00+00:00,273.868,-0.71,14.88,47.84626,-54.09684
2019-02-28 14:50:00+00:00,269.9981,-0.7,14.8,47.84626,-54.09684
2019-02-28 15:00:00+00:00,266.7414,-0.7,14.64,47.84626,-54.09684
2019-02-28 15:10:00+00:00,263.4581,-0.7,14.64,47.84626,-54.09684
2019-02-28 15:20:00+00:00,261.5564,-0.7,14.96,47.84626,-54.09684
2019-02-28 15:30:00+00:00,262.0097,-0.7,14.88,47.84626,-54.09684
2019-02-28 15:40:00+00:00,264.9381,-0.7,14.8,47.84626,-54.09684
2019-02-28 15:50:00+00:00,268.3947,-0.7,14.72,47.84626,-54.09684
2019-02-28 16:00:00+00:00,270.7548,-0.7,14.96,47.84626,-54.09684
2019-02-28 16:10:00+00:00,276.0214,-0.7,15.11,47.84626,-54.09684
2019-02-28 16:20:00+00:00,282.8664,-0.65,15.04,47.84626,-54.09684
2019-02-28 16:30:00+00:00,286.3847,-0.61,14.96,47.84626,-54.09684
2019-02-28 16:40:00+00:00,289.0746,-0.62,14.8,47.84626,-54.09684
2019-02-28 16:50:00+00:00,292.1514,-0.63,14.72,47.84626,-54.09684
2019-02-28 17:00:00+00:00,296.0197,-0.65,14.56,47.84626,-54.09684
2019-02-28 17:10:00+00:00,298.5714,-0.66,14.56,47.84626,-54.09684
2019-02-28 17:20:00+00:00,302.7247,-0.7,14.56,47.84626,-54.09684
2019-02-28 17:30:00+00:00,307.443,-0.7,14.48,47.84626,-54.09684
2019-02-28 17:40:00+00:00,311.1697,-0.7,14.56,47.84626,-54.09684
2019-02-28 17:50:00+00:00,313.598,-0.7,14.64,47.84626,-54.09684
2019-02-28 18:00:00+00:00,318.613,-0.7,14.48,47.84626,-54.09684
2019-02-28 18:10:00+00:00,324.2079,-0.7,14.4,47.84626,-54.09684
2019-02-28 18:20:00+00:00,327.7297,-0.7,14.48,47.84626,-54.09684
2019-02-28 18:30:00+00:00,326.8113,-0.7,14.48,47.84626,-54.09684
2019-02-28 18:40:00+00:00,328.0847,-0.7,14.56,47.84626,-54.09684
2019-02-28 18:50:00+00:00,331.6714,-0.7,14.56,47.84626,-54.09684
2019-02-28 19:00:00+00:00,333.3113,-0.7,14.48,47.84626,-54.09684
2019-02-28 19:10:00+00:00,331.108,-0.7,14.4,47.84626,-54.09684
2019-02-28 19:20:00+00:00,332.9013,-0.7,14.48,47.84626,-54.09684
2019-02-28 19:30:00+00:00,337.8295,-0.7,14.4,47.84626,-54.09684
2019-02-28 19:40:00+00:00,337.438,-0.7,14.4,47.84626,-54.09684
2019-02-28 19:50:00+00:00,335.233,-0.7,14.4,47.84626,-54.09684
2019-02-28 20:00:00+00:00,338.373,-0.7,14.24,47.84626,-54.09684
2019-02-28 20:10:00+00:00,341.168,-0.7,14.08,47.84626,-54.09684
2019-02-28 20:20:00+00:00,335.7546,-0.7,14.08,47.84626,-54.09684
2019-02-28 20:30:00+00:00,333.3597,-0.7,14.08,47.84626,-54.09684
2019-02-28 20:40:00+00:00,332.6296,-0.7,14.0,47.84626,-54.09684
2019-02-28 20:50:00+00:00,330.2463,-0.7,14.0,47.84626,-54.09684
2019-02-28 21:00:00+00:00,325.7713,-0.7,13.84,47.84626,-54.09684
2019-02-28 21:10:00+00:00,321.563,-0.7,13.68,47.84626,-54.09684
2019-02-28 21:20:00+00:00,319.5813,-0.7,13.6,47.84626,-54.09684
2019-02-28 21:30:00+00:00,315.718,-0.7,13.53,47.84626,-54.09684
2019-02-28 21:40:00+00:00,310.4896,-0.7,13.53,47.84626,-54.09684
2019-02-28 21:50:00+00:00,306.7347,-0.7,13.44,47.84626,-54.09684
2019-02-28 22:00:00+00:00,303.6447,-0.7,13.37,47.84626,-54.09684
2019-02-28 22:10:00+00:00,301.0397,-0.7,13.21,47.84626,-54.09684
2019-02-28 22:20:00+00:00,299.5563,-0.7,13.21,47.84626,-54.09684
2019-02-28 22:30:00+00:00,293.0681,-0.72,13.21,47.84626,-54.09684
2019-02-28 22:40:00+00:00,285.0197,-0.74,13.21,47.84626,-54.09684
2019-02-28 22:50:00+00:00,280.9664,-0.71,13.21,47.84626,-54.09684
2019-02-28 23:00:00+00:00,279.673,-0.71,13.05,47.84626,-54.09684
2019-02-28 23:10:00+00:00,274.3197,-0.75,12.97,47.84626,-54.09684
2019-02-28 23:20:00+00:00,268.1048,-0.8,13.05,47.84626,-54.09684
2019-02-28 23:30:00+00:00,268.7181,-0.8,13.05,47.84626,-54.09684
2019-02-28 23:40:00+00:00,269.4864,-0.8,13.05,47.84626,-54.09684
2019-02-28 23:50:00+00:00,264.3447,-0.8,13.05,47.84626,-54.09684
